TimeEST,TemperatureF,Dew PointF,Humidity,Sea Level PressureIn,VisibilityMPH,Wind Direction,Wind SpeedMPH,Gust SpeedMPH,PrecipitationIn,Events,Conditions,WindDirDegrees,DateUTC
12:14 AM,30.4,28.2,92,30.16,10.0,Calm,Calm,-,N/A,,Overcast,0,2013-11-03 04:14:00
12:35 AM,30.6,27.5,88,30.15,10.0,Calm,Calm,-,N/A,,Overcast,0,2013-11-03 04:35:00
12:55 AM,30.2,27.9,91,30.15,10.0,Calm,Calm,-,N/A,,Overcast,0,2013-11-03 04:55:00
1:15 AM,29.1,27.3,93,30.16,10.0,North,3.5,-,N/A,,Overcast,360,2013-11-03 05:15:00
1:35 AM,28.9,27.5,94,30.17,10.0,North,4.6,-,N/A,,Overcast,360,2013-11-03 05:35:00
1:54 AM,29.8,27.0,89,30.18,10.0,Calm,Calm,-,N/A,,Overcast,0,2013-11-03 05:54:00
1:15 AM,30.0,26.6,87,30.18,10.0,Calm,Calm,-,N/A,,Overcast,0,2013-11-03 06:15:00
1:35 AM,28.9,27.3,94,30.19,10.0,Calm,Calm,-,N/A,,Overcast,0,2013-11-03 06:35:00
1:54 AM,28.4,26.6,93,30.19,10.0,NNE,3.5,-,N/A,,Overcast,30,2013-11-03 06:54:00
2:15 AM,28.9,27.0,92,30.20,10.0,Calm,Calm,-,N/A,,Overcast,0,2013-11-03 07:15:00
2:35 AM,27.7,25.2,90,30.21,10.0,Calm,Calm,-,N/A,,Overcast,0,2013-11-03 07:35:00
2:54 AM,26.8,25.5,95,30.21,10.0,Calm,Calm,-,N/A,,Scattered Clouds,0,2013-11-03 07:54:00
3:15 AM,27.9,26.1,93,30.22,10.0,Calm,Calm,-,N/A,,Clear,0,2013-11-03 08:15:00
3:35 AM,28.4,25.5,89,30.22,10.0,ENE,3.5,-,N/A,,Clear,60,2013-11-03 08:35:00
3:55 AM,28.4,25.5,89,30.23,10.0,NNE,3.5,-,N/A,,Clear,30,2013-11-03 08:55:00
4:15 AM,27.0,24.6,91,30.23,10.0,North,3.5,-,N/A,,Clear,10,2013-11-03 09:15:00
4:34 AM,28.9,26.1,89,30.24,10.0,Calm,Calm,-,N/A,,Mostly Cloudy,0,2013-11-03 09:34:00
4:55 AM,29.3,26.2,88,30.24,10.0,Calm,Calm,-,N/A,,Mostly Cloudy,0,2013-11-03 09:55:00
5:15 AM,28.8,25.9,89,30.25,10.0,North,3.5,-,N/A,,Scattered Clouds,360,2013-11-03 10:15:00
5:34 AM,28.4,25.5,89,30.25,10.0,NNE,3.5,-,N/A,,Scattered Clouds,30,2013-11-03 10:34:00
5:55 AM,28.2,25.2,88,30.25,10.0,NNE,3.5,-,N/A,,Clear,30,2013-11-03 10:55:00
6:15 AM,28.8,25.9,89,30.25,10.0,NE,4.6,-,N/A,,Scattered Clouds,40,2013-11-03 11:15:00
6:34 AM,28.2,25.5,90,30.26,10.0,Calm,Calm,-,N/A,,Clear,0,2013-11-03 11:34:00
6:55 AM,27.3,24.8,90,30.26,10.0,NE,3.5,-,N/A,,Clear,40,2013-11-03 11:55:00
7:15 AM,26.8,24.6,92,30.26,10.0,Calm,Calm,-,N/A,,Clear,0,2013-11-03 12:15:00
7:35 AM,27.9,25.9,92,30.27,10.0,Calm,Calm,-,N/A,,Clear,0,2013-11-03 12:35:00
7:55 AM,27.5,25.7,93,30.28,10.0,Calm,Calm,-,N/A,,Clear,0,2013-11-03 12:55:00
8:15 AM,27.1,25.3,93,30.29,10.0,Calm,Calm,-,N/A,,Clear,0,2013-11-03 13:15:00
8:35 AM,26.6,24.8,93,30.29,10.0,Calm,Calm,-,N/A,,Clear,0,2013-11-03 13:35:00
8:55 AM,27.9,26.1,93,30.30,10.0,Calm,Calm,-,N/A,,Scattered Clouds,0,2013-11-03 13:55:00
9:14 AM,29.3,27.7,94,30.30,10.0,Calm,Calm,-,N/A,,Mostly Cloudy,0,2013-11-03 14:14:00
9:35 AM,31.3,30.0,95,30.30,10.0,Calm,Calm,-,N/A,,Overcast,0,2013-11-03 14:35:00
9:54 AM,33.1,32.0,96,30.30,10.0,Calm,Calm,-,N/A,,Overcast,0,2013-11-03 14:54:00
10:15 AM,35.1,32.4,90,30.31,10.0,Calm,Calm,-,N/A,,Overcast,0,2013-11-03 15:15:00
10:34 AM,36.1,33.1,89,30.31,10.0,Calm,Calm,-,N/A,,Overcast,0,2013-11-03 15:34:00
10:55 AM,39.4,35.1,84,30.31,10.0,Calm,Calm,-,N/A,,Overcast,0,2013-11-03 15:55:00
11:15 AM,41.0,34.9,79,30.32,10.0,SE,4.6,-,N/A,,Overcast,140,2013-11-03 16:15:00
11:34 AM,41.0,35.1,79,30.32,10.0,SE,3.5,-,N/A,Rain,Rain,140,2013-11-03 16:34:00
11:55 AM,42.6,37.4,82,30.32,10.0,SE,9.2,-,N/A,,Overcast,130,2013-11-03 16:55:00
12:15 PM,43.7,37.0,77,30.31,10.0,SSE,9.2,16.1,N/A,,Overcast,160,2013-11-03 17:15:00
12:34 PM,41.4,36.0,81,30.32,10.0,South,10.4,-,N/A,,Overcast,170,2013-11-03 17:34:00
12:55 PM,41.4,36.0,81,30.31,10.0,ESE,8.1,-,N/A,,Overcast,120,2013-11-03 17:55:00
1:15 PM,40.8,37.2,87,30.31,10.0,East,5.8,-,N/A,,Overcast,90,2013-11-03 18:15:00
1:35 PM,43.7,34.9,71,30.30,10.0,SSE,13.8,-,N/A,,Overcast,160,2013-11-03 18:35:00
1:55 PM,45.1,35.8,70,30.30,10.0,South,9.2,-,N/A,,Overcast,170,2013-11-03 18:55:00
2:14 PM,44.4,34.9,69,30.31,10.0,South,10.4,-,N/A,,Overcast,170,2013-11-03 19:14:00
2:35 PM,44.4,34.5,68,30.31,10.0,South,6.9,-,N/A,,Mostly Cloudy,170,2013-11-03 19:35:00
2:55 PM,42.8,33.8,70,30.31,10.0,South,6.9,-,N/A,,Mostly Cloudy,170,2013-11-03 19:55:00
3:14 PM,43.0,32.9,68,30.31,10.0,SSE,8.1,-,N/A,,Overcast,160,2013-11-03 20:14:00
3:35 PM,44.1,32.9,65,30.31,10.0,SSE,11.5,18.4,N/A,,Overcast,160,2013-11-03 20:35:00
3:55 PM,42.1,32.9,70,30.31,10.0,SSE,9.2,18.4,N/A,,Overcast,150,2013-11-03 20:55:00
4:15 PM,41.9,32.0,68,30.31,10.0,SSE,11.5,18.4,N/A,,Overcast,150,2013-11-03 21:15:00
4:35 PM,41.9,32.0,68,30.31,10.0,SE,9.2,16.1,N/A,,Overcast,140,2013-11-03 21:35:00
4:55 PM,41.9,32.0,68,30.31,10.0,SSE,9.2,-,N/A,,Overcast,150,2013-11-03 21:55:00
5:15 PM,41.9,32.0,68,30.31,10.0,SE,9.2,-,N/A,,Overcast,140,2013-11-03 22:15:00
5:35 PM,41.9,32.2,68,30.31,10.0,SSE,11.5,-,N/A,,Overcast,150,2013-11-03 22:35:00
5:54 PM,41.9,32.0,68,30.31,10.0,SSE,11.5,16.1,N/A,,Overcast,160,2013-11-03 22:54:00
6:15 PM,41.4,32.0,69,30.31,10.0,SSE,10.4,-,N/A,,Mostly Cloudy,160,2013-11-03 23:15:00
6:35 PM,41.4,31.5,68,30.31,10.0,SSE,9.2,-,N/A,,Mostly Cloudy,150,2013-11-03 23:35:00
6:54 PM,41.9,32.0,68,30.31,10.0,SE,8.1,17.3,N/A,,Mostly Cloudy,140,2013-11-03 23:54:00
7:15 PM,41.9,32.0,68,30.31,10.0,SSE,11.5,18.4,N/A,,Mostly Cloudy,150,2013-11-04 00:15:00
7:34 PM,41.4,32.0,69,30.30,10.0,SSE,9.2,-,N/A,,Scattered Clouds,150,2013-11-04 00:34:00
7:55 PM,41.5,32.4,70,30.31,10.0,SSE,9.2,-,N/A,,Scattered Clouds,150,2013-11-04 00:55:00
8:14 PM,41.5,32.7,71,30.31,10.0,SSE,11.5,17.3,N/A,,Clear,150,2013-11-04 01:14:00
8:35 PM,42.6,33.4,70,30.30,10.0,SSE,11.5,17.3,N/A,,Scattered Clouds,150,2013-11-04 01:35:00
8:54 PM,42.3,33.8,72,30.30,10.0,SSE,12.7,-,N/A,,Mostly Cloudy,160,2013-11-04 01:54:00
9:15 PM,42.8,34.2,72,30.31,10.0,South,12.7,18.4,N/A,,Mostly Cloudy,170,2013-11-04 02:15:00
9:34 PM,43.0,34.5,72,30.30,10.0,SSE,11.5,23.0,N/A,,Overcast,160,2013-11-04 02:34:00
9:55 PM,42.8,33.6,70,30.29,10.0,SSE,15.0,24.2,N/A,,Scattered Clouds,160,2013-11-04 02:55:00
10:15 PM,42.8,34.0,71,30.31,10.0,SSE,13.8,20.7,N/A,,Clear,160,2013-11-04 03:15:00
10:34 PM,43.3,34.5,71,30.31,10.0,South,15.0,20.7,N/A,,Scattered Clouds,170,2013-11-04 03:34:00
10:55 PM,43.7,34.0,69,30.31,10.0,SSE,15.0,23.0,N/A,,Scattered Clouds,160,2013-11-04 03:55:00